COSMOS 1823 DEB, 18805

Orbit data source: Space-Track

COSMOS 1823 DEB, 18805 is space debris in LEO originally from a launch on Fri, 20 Feb 1987 UTC launched from the Plesetsk Missile And Space Complex (PKMTR). Debris objects in space refer to the collection of defunct objects orbiting the Earth. Examples of debris include non-operational satellites, rocket bodies, and fragments generated from explosions, collisions, or faulty payload assembly.

Loading next visibility...
Identifier
18805, 1987-020AR
Orbit
LEO
Country
Flag of CISCIS
Related business
Manufacturer
Unknown
Mission
Spacecraft
Bus & Motor
Unknown
Mass
Unknown
Launch date (UTC)
1987-02-20 (39 years ago)
Launch vehicle
Unknown
Launch site
Plesetsk Missile And Space Complex (PKMTR)
Object type
Payload
Rocket body
Debris
Shape & HBR
Unknown shape, 0.1 m
Radar Cross Section
Medium (>0.1 m² and <1 m²)

Expand to show TLE details & history
Last TLE update: 5 days ago

TLE from 5 days ago
0 COSMOS 1823 DEB
1 18805U 87020AR  26169.18219049  .00000010  00000-0  19032-3 0  9996
2 18805  73.7076  99.6762 0020377  14.0097  52.9624 12.43339712745002
Epoch: 2026-06-18T04:22Z
TLE epoch observation values (Epoch: 2026-06-18T04:22:21.258Z)
Latitude
62.29354°
Longitude
161.28839°
Altitude
1,493.129 km
Speed
7.128 km/s
True Right ascension
08h 53m 13s
True Declination
62° 09' 54"
Sunlit
Object was in daylight at epoch
Visualization orbit readout
Latitude
Unknown
Longitude
Unknown
Altitude
Unknown
Speed
Unknown
Apparent Right ascension
Unknown
Apparent Declination
Unknown
Sunlit
N/A
Visualization observer readout
Local Sidereal Time
03:30:13
Azimuth
Unknown
Elevation
Unknown
Doppler factor
Unknown
Orbital elements
Apogee altitude
1,506.379 km
Perigee altitude
1,474.312 km
Semi-major axis
7,868.482 km
Eccentricity
0.00204
Inclination
73.7076°
RAAN
99.6762°
Arg. of periapsis
14.0097°
True anomaly
53.14908°
Mean anomaly
52.9624°
Eccentric anomaly
53.05571°
Mean motion
3.10962 °/min
Orbital period
115.77 mins
BSTAR
0.00019032
Loading maneuver chart data...
Computing Atmospheric mass density...

Documentation

Showing up to 5 results
|